This is the latest recevied weather packets stored in our database for station/object KD0ISH. If no packets are shown the sender has not sent any weather packets the latest 10 day(s).
| Time | Temp. | Humidity | Pressure | Rain* | Wind** | Luminosity | Snow |
|---|---|---|---|---|---|---|---|
| 1778077080 | 11.11° C | 78% | 1019 hPa | 0 mm | - | 161 W/m² | - |
| 1778076778 | 10.56° C | 78% | 1019 hPa | 0 mm | - | 154 W/m² | - |
| 1778076476 | 10.56° C | 78% | 1018.9 hPa | 0 mm | - | 141 W/m² | - |
| 1778076172 | 10° C | 78% | 1018.7 hPa | 0 mm | - | 165 W/m² | - |
| 1778075869 | 10° C | 79% | 1018.6 hPa | 0 mm | - | 149 W/m² | - |
| 1778075565 | 9.44° C | 82% | 1018.5 hPa | 0 mm | - | 181 W/m² | - |
| 1778075262 | 9.44° C | 83% | 1018.8 hPa | 0 mm | - | 138 W/m² | - |
| 1778074959 | 8.89° C | 83% | 1018.7 hPa | 0 mm | - | 148 W/m² | - |
| 1778074656 | 8.89° C | 85% | 1018.4 hPa | 0 mm | - | 123 W/m² | - |
| 1778074353 | 8.89° C | 87% | 1018.3 hPa | 0 mm | - | 151 W/m² | - |
| 1778074050 | 8.33° C | 90% | 1018.6 hPa | 0 mm | - | 216 W/m² | - |
| 1778073747 | 7.78° C | 92% | 1018.2 hPa | 0 mm | - | 240 W/m² | - |
| 1778073445 | 7.78° C | 94% | 1018.5 hPa | 0 mm | - | 95 W/m² | - |
| 1778073140 | 7.22° C | 95% | 1018.5 hPa | 0 mm | - | 90 W/m² | - |
| 1778072837 | 7.22° C | 96% | 1018.5 hPa | 0 mm | - | 71 W/m² | - |
| 1778072534 | 7.22° C | 97% | 1018.7 hPa | 0 mm | - | 70 W/m² | - |
| 1778072232 | 7.22° C | 98% | 1018.7 hPa | 0 mm | - | 51 W/m² | - |
| 1778071930 | 7.22° C | 98% | 1018.6 hPa | 0 mm | - | 51 W/m² | - |
| 1778071628 | 6.67° C | 98% | 1018.4 hPa | 0 mm | - | 62 W/m² | - |
| 1778071326 | 7.22° C | 99% | 1018.3 hPa | 0 mm | - | 39 W/m² | - |
| 1778071023 | 6.67° C | 99% | 1018.2 hPa | 0 mm | - | 34 W/m² | - |
| 1778070722 | 6.67° C | 99% | 1018.4 hPa | 0 mm | - | 39 W/m² | - |
| 1778070418 | 6.67° C | 99% | 1018.5 hPa | 0 mm | - | 36 W/m² | - |
| 1778070116 | 6.67° C | 99% | 1018.5 hPa | 0 mm | - | 23 W/m² | - |
| 1778069813 | 6.67° C | 99% | 1018.4 hPa | 0 mm | - | 15 W/m² | - |
* Rain latest hour (hover to see other rain measurements)
** Current wind speed in m/s (hover to see current wind gust speed)